User: anonymous   Login
Location: Prague
(50.0830°N, 14.4670°E)
Time: 18:52:02
(UTC+01:00)
Language:

Oscar 11 - Orbit

View from above orbital plane
View from above orbital plane
View from above satellite
View from above satellite

Ground track
Ground track

The orbit data is extracted from the following two-line orbital elements,

1 14781U 84021B   21333.80015152  .00000274  00000-0  39457-4 0  9995
2 14781  97.6027 325.5894 0006945 255.7568 104.2875 14.83373679 10449
Epoch (UTC): 29 November 2021 19:12:13
Eccentricity: 0.0006945
inclination: 97.6027°
perigee height: 614 km
apogee height: 623 km
right ascension of ascending node: 325.5894°
argument of perigee: 255.7568°
revolutions per day: 14.83373679
mean anomaly at epoch: 104.2875°
orbit number at epoch: 1044

The dashed part of the orbit path shows where the satellite is in the earth's shadow,  

DLR